Theta_e
329 328 330 329 329 327 327 327 328 328 330 330 330 330 331 331 331 332 333 334 331 330 329 329 329 329 330 331 332 333 333 335 334 330 328 329 326 327 331 329 330 332 332 332 330 323 319 315 319 325 327 327 329 330 331 333 333 334 332 331 331 334 335
329 329 328 327 326 327 327 327 327 325 328 331 331 331 330 329 330 330 331 331 331 330 328 328 329 329 330 331 332 331 333 335 336 335 332 331 331 330 329 330 329 329 330 332 331 330 322 318 319 321 321 325 327 326 328 330 331 332 331 331 331 331 332
329 327 326 326 326 327 326 327 326 325 325 328 331 331 330 328 329 330 329 329 330 329 328 326 328 329 329 331 334 335 334 333 334 334 332 333 333 332 331 330 328 328 328 327 328 327 327 326 319 319 322 322 318 320 326 327 328 328 328 327 327 327 329
329 327 326 326 325 325 325 325 325 325 327 328 328 330 330 328 328 329 330 329 329 328 325 324 327 326 328 329 329 329 330 332 331 332 332 332 331 330 330 329 328 328 326 325 326 326 324 322 320 318 319 319 318 317 320 322 322 322 323 325 323 322 325
330 327 326 325 325 324 324 323 323 324 326 328 327 326 327 327 327 327 328 328 327 327 325 328 328 326 327 326 326 326 327 328 329 329 329 330 331 330 330 330 329 330 329 328 326 326 324 321 321 319 316 315 315 316 318 321 320 319 319 319 319 320 320
330 327 326 325 324 322 322 322 323 322 323 324 324 324 327 326 326 327 327 326 324 326 328 327 327 327 326 323 323 323 325 324 325 327 324 327 326 324 324 326 324 325 324 325 328 328 326 325 323 318 317 318 315 315 317 317 315 316 317 317 318 319 319
330 328 326 324 324 323 322 323 322 322 322 323 324 324 324 323 325 326 326 325 324 324 326 326 326 326 326 321 323 323 323 324 324 324 323 324 324 325 325 321 320 319 319 321 321 322 324 323 320 320 319 319 318 314 316 316 317 314 314 316 318 318 319
330 327 325 325 324 323 322 322 322 322 322 323 323 325 325 325 325 325 323 322 322 323 323 324 324 325 325 321 321 323 322 323 322 322 322 322 321 321 322 318 318 318 319 317 318 319 318 322 321 319 317 314 313 314 312 313 314 312 312 313 315 316 317
329 328 325 325 325 325 323 322 322 322 323 323 325 326 325 324 323 322 322 321 321 321 321 322 322 322 323 321 320 321 320 320 320 320 319 319 320 321 320 320 318 317 319 317 317 317 318 320 322 321 319 316 311 309 312 311 312 311 312 310 310 313 314
330 327 324 326 326 326 325 323 323 322 324 325 325 326 325 324 323 323 322 323 322 321 321 321 321 322 322 321 320 320 319 319 319 318 319 319 321 319 320 320 317 317 317 320 319 319 319 320 320 321 319 316 316 311 309 310 311 309 310 311 306 307 311
330 328 326 327 327 326 325 324 325 323 323 324 325 325 326 325 324 323 323 324 324 322 322 320 319 320 321 319 320 319 319 320 318 319 319 319 320 320 320 320 319 317 320 319 319 321 320 319 317 317 317 318 318 313 312 309 310 312 308 309 308 305 307
330 329 327 327 327 327 326 327 326 325 324 324 323 325 324 323 324 324 324 323 324 323 322 322 321 320 319 320 319 318 321 320 317 318 319 320 320 320 319 318 319 318 320 320 320 320 321 319 316 314 315 317 318 319 314 312 309 312 314 307 306 307 306
330 328 326 327 325 327 324 322 324 326 325 323 324 324 322 322 323 323 323 322 323 323 322 322 322 322 321 320 319 317 319 319 317 317 317 319 317 319 318 317 317 317 318 317 317 317 315 317 318 314 314 315 315 318 316 315 312 309 310 307 306 306 307
331 329 327 327 325 325 323 324 324 326 325 324 324 323 322 322 321 322 322 321 322 323 322 322 323 323 322 321 319 318 318 317 315 316 316 316 316 317 315 314 315 316 318 317 316 316 315 314 315 315 314 313 313 315 315 314 310 307 308 310 309 306 309
331 331 330 328 328 326 323 325 327 327 327 327 325 323 322 323 322 321 320 321 322 322 322 322 323 323 322 322 322 321 320 318 317 316 318 315 316 315 317 315 314 316 317 315 317 314 314 313 313 311 311 312 311 313 315 313 310 308 305 308 307 308 308
330 331 331 329 327 324 323 325 327 326 326 325 326 324 324 324 322 322 321 321 321 321 321 321 323 322 322 322 321 322 322 321 320 319 318 317 315 317 317 317 316 316 317 317 317 317 316 314 313 312 313 312 312 312 312 313 312 309 308 306 309 307 308
330 330 330 329 327 327 326 324 323 326 326 326 324 325 324 324 323 323 323 323 322 322 322 323 323 323 322 322 321 321 321 322 321 321 320 319 317 317 317 318 318 317 317 317 316 316 316 316 315 313 314 314 314 313 315 315 314 313 310 307 309 308 309
328 329 329 328 329 327 329 325 323 322 326 327 326 326 326 325 324 323 324 323 323 324 324 324 324 324 325 325 323 322 322 322 322 321 321 321 319 320 319 319 319 318 317 317 317 316 316 315 313 313 312 312 312 313 313 313 313 313 312 310 309 310 311
327 328 328 329 329 329 330 329 327 325 324 325 326 327 327 326 325 324 324 323 324 324 324 325 325 324 325 325 325 325 325 324 323 322 321 321 319 320 320 319 319 319 317 317 318 317 317 315 312 313 311 310 310 312 313 313 314 314 312 311 312 310 312
327 326 327 328 328 327 328 329 328 325 325 325 326 326 326 326 327 326 325 325 325 325 325 325 325 325 325 325 325 325 326 324 323 323 324 323 322 321 320 320 320 319 317 317 317 318 317 315 314 312 311 311 310 312 312 312 313 313 313 312 311 312 311
327 327 327 326 326 326 326 327 327 326 326 325 325 325 325 326 327 327 327 327 326 327 326 326 325 325 324 325 325 325 325 325 323 324 325 324 324 323 322 321 321 321 320 318 317 317 316 315 316 312 311 310 311 310 311 311 312 312 312 313 312 310 310
327 326 326 326 325 325 326 326 327 327 328 328 327 326 326 326 327 326 327 327 327 327 327 326 326 326 326 325 326 326 326 326 325 325 326 326 325 325 324 324 322 321 320 317 312 313 313 313 317 312 310 309 309 310 310 311 311 310 311 311 311 312 311
325 326 325 324 325 325 326 328 329 329 328 328 328 327 326 327 326 326 325 325 327 328 327 327 323 312 314 325 326 324 326 325 324 325 325 325 325 324 324 324 324 318 314 311 308 304 302 303 306 311 313 313 310 310 309 309 310 311 311 310 310 309 309
325 325 324 325 325 324 324 326 328 327 327 326 327 327 326 325 325 326 325 325 326 327 327 325 303 302 302 303 321 327 326 326 327 326 326 326 325 325 325 324 325 319 317 311 312 299 299 298 299 298 301 301 304 316 310 308 309 310 309 309 309 308 307
322 323 324 324 324 324 324 324 325 326 326 326 327 327 326 325 325 326 326 325 325 326 327 304 295 296 296 297 303 326 327 326 327 327 327 326 325 324 324 324 324 324 321 320 318 314 304 297 296 296 294 294 292 290 294 309 310 308 308 308 306 306 306
323 324 324 324 324 324 324 323 324 325 324 322 323 321 321 323 322 323 324 323 322 323 326 296 296 294 296 294 295 306 327 327 325 325 325 324 324 323 323 323 324 324 321 313 315 317 314 308 295 292 293 293 293 292 291 290 293 311 309 306 304 304 307
320 322 323 323 323 323 324 324 325 325 322 320 322 321 321 319 320 321 321 322 322 323 323 297 295 293 294 293 293 300 326 324 322 321 321 321 322 320 321 320 320 320 321 318 318 320 316 310 306 304 304 305 305 300 293 292 292 293 301 307 307 307 310
314 316 320 322 323 323 323 324 323 323 322 321 320 320 318 317 318 319 320 322 322 323 319 292 293 292 292 292 291 300 323 322 319 319 320 321 321 322 322 322 321 320 319 320 320 318 316 310 308 306 304 306 307 307 309 308 308 308 306 307 308 309 310
312 312 314 316 318 319 321 321 321 321 320 320 321 320 320 320 319 319 320 320 321 321 315 291 291 291 291 292 293 321 321 319 317 317 318 319 319 320 321 322 320 319 320 319 304 300 306 311 309 307 307 308 308 307 304 295 292 293 302 307 308 308 307
310 312 312 312 312 314 317 318 319 319 318 318 319 318 318 319 320 319 319 320 319 320 319 297 290 291 292 291 300 321 319 317 318 317 318 318 318 318 317 317 320 318 318 316 298 295 297 301 310 309 308 308 307 307 304 301 293 290 290 290 289 289 289
310 310 311 310 310 313 316 318 318 317 316 316 315 316 316 316 316 316 316 316 317 316 320 300 289 292 291 293 303 319 317 317 317 316 316 317 317 313 307 298 307 317 315 309 291 294 295 304 311 310 310 309 308 308 306 304 303 299 289 290 289 289 289
311 311 311 311 313 313 315 316 316 317 315 315 315 314 312 312 312 313 314 314 307 314 317 305 290 291 291 293 303 322 316 316 316 315 315 314 315 313 309 303 295 303 307 300 290 293 294 301 313 312 312 310 307 306 305 305 303 302 302 302 301 301 299
310 311 311 312 313 314 314 314 315 313 313 312 310 309 309 310 310 309 313 312 315 315 315 316 305 290 292 292 292 315 317 315 315 315 314 313 312 311 309 306 299 290 289 289 290 290 291 294 311 312 310 308 306 304 304 304 303 304 303 302 303 304 303
309 310 310 311 313 312 313 313 313 313 311 311 310 309 309 310 310 311 312 313 313 317 318 315 307 290 292 293 293 297 317 315 316 315 313 312 311 310 308 306 303 291 289 289 290 290 291 291 296 308 308 306 304 301 299 303 298 291 299 301 302 301 302
309 310 310 310 311 312 312 312 313 313 311 311 311 311 311 311 310 310 312 313 315 315 309 304 314 293 291 292 294 292 312 316 314 314 312 312 311 310 307 305 302 293 288 289 289 290 290 291 292 302 298 289 288 291 301 300 301 301 301 301 300 299 300
307 309 310 310 309 309 311 312 311 311 311 312 313 314 313 312 311 311 311 312 314 314 312 307 297 306 291 292 291 294 294 309 297 315 312 311 310 308 307 303 297 289 289 289 290 290 291 291 293 294 287 288 289 287 292 301 300 299 300 299 299 298 298
306 307 308 309 309 309 309 310 311 311 310 309 309 308 307 309 309 308 309 308 310 309 310 307 296 296 298 290 291 292 293 294 296 311 313 311 309 307 304 302 295 288 289 289 289 289 289 292 293 287 288 287 287 289 299 300 299 300 297 297 297 298 298
Wind_Speed
7 8 8 6 6 5 6 6 6 5 4 4 4 4 4 5 4 5 5 5 4 4 3 4 3 3 2 2 2 2 1 0 2 2 2 2 4 3 4 3 3 2 3 3 1 5 4 5 5 5 5 5 6 6 5 4 5 5 5 6 6 6 5
9 8 8 7 7 6 6 5 5 6 5 4 4 5 5 5 4 5 5 5 4 4 3 4 4 4 3 2 2 1 2 1 1 1 1 1 3 2 5 4 4 3 3 3 2 2 5 3 4 4 5 6 8 7 5 5 5 5 6 6 6 6 5
8 8 8 8 7 6 6 6 5 5 5 5 5 5 5 6 5 4 4 5 5 5 5 5 4 4 4 4 4 3 2 2 2 2 2 1 1 1 2 2 3 3 2 2 3 3 3 4 1 5 5 4 6 6 5 6 6 5 6 6 5 5 5
10 9 9 8 7 7 6 6 5 5 5 5 5 5 5 5 5 5 5 5 5 5 5 5 5 5 5 5 4 4 4 3 2 3 3 2 1 1 2 3 3 3 1 1 2 2 1 2 4 5 5 6 7 7 6 6 6 6 7 6 6 6 6
9 8 9 9 8 8 7 6 6 5 6 5 5 5 5 5 5 5 5 5 6 6 5 5 5 5 4 4 4 4 4 5 4 4 3 4 2 3 2 1 1 1 1 1 2 1 2 3 2 4 6 6 7 6 6 6 6 6 6 6 7 7 7
8 9 9 9 8 8 7 7 6 6 6 6 5 5 5 5 5 5 6 6 6 6 6 5 5 5 5 5 5 5 6 6 5 5 5 5 5 4 3 3 2 2 2 3 2 0 2 2 2 4 6 6 6 6 6 6 5 6 6 6 6 6 7
7 7 7 8 8 7 7 7 7 6 6 6 6 5 5 5 6 6 6 6 6 6 6 6 6 5 5 4 6 6 6 5 5 5 5 5 5 5 4 4 4 4 4 4 3 1 1 2 2 3 4 5 5 5 5 5 5 5 6 6 6 6 7
7 6 6 7 7 8 7 7 7 6 6 6 6 6 5 6 6 6 7 6 6 6 5 4 4 4 4 5 6 5 5 5 5 5 5 5 4 5 5 4 3 4 4 4 3 3 1 0 2 3 3 5 4 2 4 4 5 6 6 6 6 6 6
6 6 6 7 7 7 8 8 8 7 7 7 6 6 6 6 6 7 7 7 6 6 6 5 4 5 4 4 5 5 5 4 4 5 5 5 5 5 4 4 4 5 4 4 4 4 4 2 1 3 2 2 3 4 3 4 3 5 4 5 6 7 6
7 7 7 8 8 7 8 8 7 8 9 7 7 6 6 6 6 6 7 7 6 6 6 5 5 5 5 5 5 5 5 5 5 5 5 5 4 4 5 4 4 4 4 4 4 4 4 2 1 1 2 2 2 2 3 4 4 3 4 4 4 5 5
7 8 8 8 7 7 7 7 7 7 9 9 7 7 7 7 6 6 6 6 6 6 5 5 6 5 5 5 5 5 5 4 4 4 4 4 4 4 4 4 4 5 5 4 5 4 4 3 2 0 1 2 2 3 1 2 4 3 4 4 4 5 4
7 8 8 8 8 7 7 6 6 5 7 9 9 8 8 7 6 6 6 6 6 6 6 6 5 5 5 5 4 4 3 3 4 4 4 4 3 3 4 4 4 4 4 4 3 3 3 2 2 2 1 1 2 4 1 3 4 3 3 4 4 5 5
8 8 9 8 7 6 6 7 6 6 6 7 8 9 8 8 7 7 6 6 6 6 6 5 5 5 4 4 3 4 3 3 4 4 4 3 3 3 3 3 3 3 2 2 3 3 3 4 4 3 3 2 2 2 1 1 4 6 3 3 4 3 4
8 8 9 9 8 7 6 7 6 5 5 6 8 9 9 9 8 7 7 7 7 6 6 5 4 4 5 5 4 4 3 2 3 3 3 3 2 2 2 3 3 3 2 2 2 2 3 3 2 2 3 3 3 2 1 3 4 6 4 2 2 3 2
6 7 8 9 8 8 7 6 6 5 5 6 7 8 10 8 8 8 7 7 7 6 6 6 4 4 5 5 5 3 3 3 3 3 1 1 2 1 1 1 3 2 1 1 0 2 3 2 2 3 3 3 3 3 2 2 4 4 5 3 3 3 4
6 7 8 8 8 9 8 7 6 6 6 6 6 7 8 9 9 8 8 8 7 7 6 6 5 5 4 4 5 4 3 2 2 3 2 2 1 2 1 1 1 2 1 1 0 2 1 1 2 4 3 3 4 3 3 3 2 4 4 4 3 3 2
6 6 7 7 9 9 8 8 7 7 6 6 7 6 8 9 9 9 9 9 8 8 7 6 6 5 5 4 4 5 4 3 2 1 1 0 1 1 0 1 1 1 1 1 1 1 1 2 1 3 3 4 3 4 3 2 1 3 3 4 2 1 3
7 6 7 7 8 9 8 8 8 8 7 6 7 7 7 8 9 9 9 10 10 9 8 7 6 5 5 4 4 4 4 3 3 2 1 0 1 2 2 2 1 1 1 1 1 2 1 1 0 2 1 2 3 3 2 1 2 2 2 3 3 1 1
7 7 6 6 8 8 8 8 8 8 8 8 8 8 8 8 8 8 8 8 9 9 9 8 7 6 5 5 4 3 3 3 3 3 3 3 2 2 2 3 3 3 2 2 1 0 1 1 2 1 1 2 2 2 2 2 1 1 1 2 2 3 0
7 7 7 5 5 7 8 8 9 9 8 9 9 9 8 8 7 7 8 8 8 8 8 8 7 7 6 5 4 4 5 5 5 5 5 5 5 5 5 4 5 4 5 4 1 2 2 1 2 4 2 1 1 2 1 0 2 2 1 1 1 1 1
7 7 7 7 7 6 7 8 9 9 9 10 9 9 9 9 8 7 7 7 6 6 6 6 6 6 6 6 5 5 5 5 5 5 5 5 5 6 7 7 7 7 7 5 5 5 5 3 4 2 3 1 2 1 1 1 2 2 2 1 1 1 0
3 5 7 7 7 6 8 10 9 9 8 8 7 8 8 8 7 8 7 7 7 7 6 6 5 5 6 6 6 5 5 5 5 5 5 6 6 7 7 8 8 9 8 8 8 4 6 5 6 7 5 5 6 3 3 2 3 2 2 2 2 2 2
4 4 4 5 6 7 8 8 7 7 7 7 7 7 7 7 7 7 7 8 7 6 5 5 5 4 2 3 6 5 5 5 5 5 5 5 5 6 7 7 7 10 10 11 9 7 7 8 7 6 5 5 5 3 2 3 3 3 2 4 2 2 4
2 3 3 4 4 5 6 6 7 7 7 7 7 6 6 6 6 6 6 5 5 4 4 3 11 8 7 6 5 5 5 5 5 5 5 5 5 5 6 6 5 7 8 8 7 8 8 8 11 3 1 6 7 2 6 5 3 2 2 2 2 2 3
2 2 3 4 4 5 5 5 6 5 6 7 7 5 4 2 2 2 2 4 4 4 3 8 10 9 7 8 7 5 5 4 3 4 4 4 4 4 4 3 3 4 6 7 8 9 8 8 5 2 7 8 8 8 8 3 1 2 0 1 1 1 3
0 1 2 3 3 3 4 4 4 5 3 4 6 5 5 1 1 1 3 4 5 5 5 7 6 6 6 7 8 8 5 4 4 3 3 3 3 3 4 4 5 5 4 9 7 7 8 7 6 7 9 10 9 9 8 8 8 3 0 0 1 2 2
1 1 1 2 3 4 4 4 3 3 3 3 4 3 4 2 4 4 4 6 5 5 5 6 5 5 6 7 7 7 2 3 2 1 1 1 1 2 2 3 3 4 5 6 6 6 7 8 8 7 7 6 5 5 5 6 6 5 2 1 1 3 2
1 1 0 1 3 4 4 4 5 4 4 4 4 4 4 5 5 4 5 5 5 5 4 6 5 6 6 7 7 4 3 2 2 2 1 2 1 1 1 2 3 3 3 5 4 4 7 9 10 9 9 7 7 5 3 2 2 1 1 1 2 2 2
1 0 1 1 3 3 4 4 5 5 6 5 6 7 5 4 4 3 3 6 6 5 3 4 4 6 8 8 8 5 4 4 3 3 3 2 1 1 1 0 2 2 1 1 10 3 4 8 10 10 9 8 6 5 4 5 4 6 6 4 4 4 4
2 2 1 3 3 4 4 5 5 5 6 6 6 7 7 6 6 8 9 8 8 6 6 6 5 6 8 9 7 5 5 4 4 4 3 3 3 4 5 5 3 1 2 5 6 4 3 8 9 9 8 7 6 6 5 5 5 6 6 8 6 6 5
4 5 4 5 5 4 4 4 5 5 6 7 8 8 8 8 7 7 7 5 3 4 4 5 4 6 6 9 7 4 5 4 4 4 4 3 4 5 8 11 10 3 5 5 6 6 4 5 7 7 7 7 6 5 5 4 3 3 4 3 2 2 2
4 5 5 5 4 4 4 5 6 5 6 6 6 7 7 7 7 6 5 6 2 2 5 4 3 7 7 9 6 5 5 4 5 4 5 5 4 5 6 8 12 10 8 8 7 6 1 5 6 6 5 5 5 4 4 4 3 2 3 3 5 5 6
5 5 5 5 4 4 3 5 6 7 6 6 7 7 7 7 8 6 5 6 5 4 5 5 5 6 7 7 8 5 5 4 5 5 5 6 6 6 6 6 7 9 9 8 8 7 7 8 1 4 2 2 2 3 3 3 1 2 2 4 5 4 6
6 6 7 6 5 5 5 5 5 7 7 7 8 8 8 8 8 8 6 6 6 4 3 4 5 5 6 7 7 6 5 4 4 5 5 6 5 6 6 6 6 7 9 10 10 10 10 11 8 3 3 4 5 6 2 2 4 2 5 5 5 6 6
5 5 6 6 7 7 6 7 6 7 7 6 7 8 7 7 7 7 7 6 5 5 3 5 4 4 6 6 6 5 5 5 2 5 5 5 5 6 7 7 7 6 9 11 11 12 12 11 10 6 7 8 7 5 1 1 2 3 4 5 5 5 6
6 5 5 6 7 8 8 8 9 8 8 8 8 7 7 6 6 7 6 5 5 5 5 3 3 4 6 5 4 1 6 3 3 4 5 5 5 7 7 8 8 7 10 11 12 11 11 11 10 8 7 7 6 1 5 3 1 4 4 4 5 6 6
8 7 7 6 6 7 9 10 9 9 10 10 9 9 8 8 8 8 8 6 5 5 5 5 4 3 5 4 4 4 7 7 5 3 5 5 6 7 8 9 8 10 11 11 11 11 11 10 8 8 6 5 5 6 4 2 4 3 4 5 5 5 5
Wind_Direction
137 131 135 128 123 127 126 129 126 121 107 97 98 84 88 87 86 90 87 85 89 90 84 75 73 67 73 67 22 19 308 342 187 250 211 178 235 169 197 196 193 277 271 255 225 181 218 192 151 111 90 70 66 57 53 71 52 29 51 46 36 32 12
133 137 135 133 132 131 129 122 109 109 103 88 87 89 72 73 78 82 82 84 71 59 65 75 63 56 50 46 72 36 24 42 9 2 220 184 221 187 172 189 204 202 205 232 249 222 251 222 125 122 104 97 85 72 79 71 68 70 57 55 58 66 65
137 136 136 134 135 141 130 125 123 118 115 114 97 75 72 67 53 53 72 69 61 55 50 48 61 68 51 62 53 45 49 31 28 31 24 38 327 73 238 144 192 175 196 180 205 205 241 336 133 134 128 113 87 70 69 91 92 81 82 79 79 74 78
139 138 137 141 138 141 134 130 123 114 110 108 104 90 71 67 63 54 52 62 60 47 38 47 50 60 73 74 80 80 73 85 92 94 87 62 67 94 172 193 189 196 211 178 156 169 196 140 105 102 103 90 95 95 81 76 74 89 90 87 81 78 78
144 143 141 141 144 138 135 131 125 126 121 114 108 97 78 69 75 76 74 67 56 45 53 56 56 74 65 63 56 49 59 57 69 83 79 89 75 109 134 150 15 27 156 185 139 166 165 121 149 123 112 111 96 89 92 92 98 89 84 88 93 93 88
146 141 141 141 140 138 139 137 139 131 131 124 109 98 78 71 73 72 62 58 62 58 53 56 64 48 54 61 57 65 49 46 49 42 54 46 50 64 79 78 70 66 68 37 26 102 125 137 140 142 120 116 113 125 138 130 103 85 84 86 76 72 83
143 143 141 139 141 137 137 140 139 134 129 121 113 98 94 88 81 79 76 73 69 69 67 62 52 47 24 59 67 55 58 56 56 57 58 49 43 31 19 44 37 47 36 23 22 359 113 157 152 134 125 113 144 136 138 136 127 115 91 76 72 75 71
138 141 138 138 142 143 142 140 133 135 131 129 119 110 104 100 98 90 88 87 83 79 77 70 74 70 52 58 66 58 55 51 54 54 55 49 47 44 43 49 71 60 37 45 28 7 44 140 171 158 157 143 134 125 122 105 98 79 96 68 62 73 72
133 133 136 142 147 151 146 141 138 138 133 129 125 125 121 120 115 113 107 99 94 91 88 88 82 79 71 73 74 68 66 62 71 66 81 76 62 57 52 39 52 59 49 44 48 36 22 23 55 154 179 186 155 143 152 126 110 84 55 95 81 54 70
140 143 146 151 155 157 150 145 146 141 137 136 136 135 135 129 129 120 112 107 101 96 94 93 94 92 91 84 84 79 68 58 54 59 56 63 66 58 59 48 62 76 71 59 42 48 52 23 28 271 265 254 278 159 167 144 114 115 81 21 77 77 63
151 149 151 158 162 167 159 151 149 153 149 141 144 145 141 138 130 128 118 113 108 104 102 99 94 98 99 93 94 89 81 82 81 76 65 64 59 58 48 48 47 59 42 43 56 44 52 44 31 58 280 312 304 299 155 160 111 68 99 67 43 82 74
160 157 159 164 167 175 165 150 151 162 150 142 145 145 148 143 143 134 128 124 121 118 113 108 110 101 100 105 110 105 108 93 86 89 80 73 67 67 64 60 57 60 47 51 49 58 50 38 74 115 67 321 45 322 4 112 142 80 12 89 70 47 60
168 166 165 168 170 167 161 160 167 166 162 148 147 151 149 147 145 146 141 134 136 131 127 123 117 117 114 110 115 102 99 119 112 107 114 115 107 103 102 85 58 61 63 92 73 58 59 46 21 44 65 72 83 15 335 345 87 110 64 81 96 105 93
173 171 171 167 169 159 168 166 176 173 168 160 156 154 150 148 148 148 146 147 141 140 134 133 131 134 126 119 105 103 120 117 120 107 107 120 123 111 77 90 99 81 52 51 85 87 54 66 70 52 60 78 83 76 54 97 122 122 118 106 118 94 85
177 174 171 168 166 159 168 171 173 187 180 166 168 157 150 146 150 154 149 144 144 140 143 134 143 139 129 127 121 127 133 130 100 96 100 99 91 72 112 99 93 87 55 76 293 169 134 154 138 119 86 63 86 78 5 100 124 135 129 156 144 142 126
181 177 175 174 176 166 167 171 176 185 187 171 175 165 151 155 157 158 154 152 148 149 148 147 149 149 140 148 143 137 132 113 122 126 148 153 185 98 163 124 132 121 152 144 227 40 34 353 56 80 72 67 73 63 63 55 112 123 146 130 164 155 111
189 186 184 185 183 172 169 175 179 185 187 180 176 171 163 163 163 164 161 156 155 158 155 153 158 157 152 148 159 149 150 151 155 162 119 222 145 166 215 240 136 161 177 179 239 143 179 110 107 94 117 114 110 99 95 101 79 112 140 146 172 183 131
200 194 195 193 190 185 176 180 184 189 184 190 185 177 175 170 170 173 170 170 164 163 161 159 154 153 146 164 164 165 172 161 163 183 180 118 334 317 311 275 245 143 218 262 190 244 117 276 138 136 134 127 123 113 134 119 99 130 150 133 132 101 186
203 195 197 201 198 192 189 193 189 193 192 195 193 191 186 181 186 180 183 181 173 168 169 165 167 167 165 171 189 192 189 174 175 187 181 192 213 245 274 298 311 314 325 277 254 358 338 336 359 329 23 340 86 91 60 105 111 90 125 128 156 152 120
198 195 195 202 207 212 209 207 203 199 196 201 197 202 199 194 188 188 190 190 188 181 172 177 175 170 176 181 196 203 186 199 208 202 207 200 191 201 213 228 239 221 228 237 255 309 335 310 26 356 31 349 329 92 191 138 117 138 139 145 143 353 155
206 209 211 211 213 224 228 225 226 213 204 206 203 206 205 203 197 202 194 194 195 179 171 184 187 187 194 186 196 213 213 210 213 209 215 220 216 216 217 214 218 219 217 224 232 197 182 149 115 264 268 351 338 205 201 169 213 203 186 216 295 176 321
196 200 209 215 215 213 237 236 228 222 208 208 208 211 211 214 205 207 194 191 183 178 189 191 196 197 199 192 196 203 215 214 215 219 219 216 211 216 218 213 219 216 204 202 211 218 183 174 191 195 192 185 212 207 220 229 224 241 238 229 217 233 239
185 188 213 218 217 217 216 216 223 221 217 215 208 209 213 218 221 218 212 199 193 184 189 202 118 99 331 216 191 202 191 210 213 216 225 231 226 224 227 225 216 211 195 189 186 187 176 204 230 257 213 206 208 217 263 246 254 252 276 267 297 328 306
178 199 204 212 219 226 219 209 217 222 222 220 221 219 223 220 225 228 227 220 207 212 218 189 135 157 178 264 253 199 209 209 209 216 224 227 234 227 223 224 223 171 178 174 183 191 208 211 217 242 40 33 25 108 222 243 259 314 301 329 12 309 337
202 183 205 213 217 222 224 216 216 223 224 225 224 223 228 249 275 257 269 276 270 251 237 117 153 163 185 202 247 236 198 208 193 208 215 225 224 228 240 230 219 167 203 199 199 193 202 207 212 103 87 68 58 47 44 18 272 192 68 297 314 341 317
35 199 230 219 208 222 228 227 220 221 244 347 340 332 323 8 145 260 232 227 234 254 249 125 144 162 173 200 223 249 192 177 196 197 218 229 252 246 224 209 202 194 150 128 192 201 181 169 119 98 106 97 69 55 51 47 32 12 60 337 319 297 297
103 104 190 216 216 220 216 216 211 185 117 150 158 143 153 229 278 270 273 270 249 216 213 107 129 151 170 183 200 241 172 172 191 192 195 230 251 268 257 252 241 205 156 172 206 197 178 162 158 151 158 162 135 115 113 107 101 62 12 325 279 290 36
37 71 158 202 222 226 223 203 194 180 212 200 177 164 169 194 204 228 241 250 241 223 96 100 135 162 159 173 177 227 164 168 175 143 104 74 8 354 305 286 261 266 210 206 209 184 178 166 165 166 170 166 156 154 127 106 57 36 123 251 292 323 343
65 177 230 238 231 217 205 198 195 184 190 180 167 173 185 195 181 187 239 244 236 214 117 119 162 166 174 168 166 198 166 166 161 130 117 88 98 94 84 312 257 231 239 197 89 130 207 168 169 169 169 160 150 134 97 63 30 25 24 23 32 28 39
270 246 218 230 225 233 220 208 201 184 184 183 178 175 172 174 171 177 186 198 200 188 142 142 146 168 173 166 193 200 172 184 152 142 113 118 113 71 41 14 0 70 136 93 95 117 127 183 173 173 169 162 159 159 138 128 83 58 57 65 65 68 64
295 284 273 262 260 243 222 206 191 182 176 169 167 161 159 158 159 158 166 176 188 187 134 105 124 149 176 189 241 223 191 186 155 146 136 124 99 85 58 30 358 81 101 106 119 118 129 200 176 174 172 174 169 166 140 137 151 117 122 127 119 132 190
313 304 284 268 278 258 209 188 171 182 175 171 156 158 164 160 157 151 136 125 57 174 126 122 144 155 184 199 238 223 218 185 177 171 152 133 117 102 88 59 37 41 75 104 111 113 45 275 190 191 196 204 198 173 133 152 165 186 190 210 202 200 209
308 302 299 300 279 260 225 189 176 190 187 190 174 171 172 163 157 143 137 144 152 157 140 138 146 170 184 199 240 281 230 203 190 171 174 146 134 117 107 99 76 71 84 91 93 83 60 9 3 145 178 184 198 160 139 157 72 331 276 272 282 266 276
320 314 300 291 286 261 247 235 206 206 202 203 183 181 179 172 164 155 156 155 150 139 118 143 131 178 189 207 214 255 226 212 192 184 170 159 151 141 125 101 101 84 98 94 88 78 69 49 35 86 61 65 54 49 21 169 127 238 268 273 267 262 257
316 307 305 297 281 268 255 244 233 221 221 214 199 193 186 180 172 163 157 157 146 146 91 353 148 173 197 204 221 276 286 191 210 183 183 170 152 136 124 122 119 103 92 86 80 77 67 59 50 76 70 81 68 50 12 315 256 237 258 255 267 276 280
296 294 292 292 283 272 260 241 231 227 221 212 200 188 183 184 181 171 161 152 151 150 148 126 12 166 179 203 200 180 356 93 48 213 187 180 154 128 117 111 103 97 96 93 88 86 88 90 82 84 93 85 85 85 268 241 295 278 268 285 290 286 284
278 276 276 277 273 268 259 249 235 225 218 218 211 201 198 192 196 191 182 168 164 160 154 149 80 64 151 164 144 114 84 68 24 255 188 182 144 129 132 125 113 108 98 95 88 81 73 75 96 115 117 139 185 233 256 251 244 263 283 273 273 280 291